RADARSAT-2

Last updated on Sun Sep 20 2026 00:02:43 GMT+0000 (Coordinated Universal Time)

1 32382U 07061A 26262.42854036 .00000107 00000+0 58354-4 0 9998 2 32382 98.5827 268.0304 0001253 81.8166 278.3159 14.29983389979425
UTC large
Height (km)
Speed (km/s)
/
Latitude / Longitude
Inclination (degrees)
Orbital Period (minutes)
Azimuth
Elevation
Range (km)
Doppler Factor

Next 0 passes for location: London (51.5072 / 0.1276)

No passes found over London.
RADARSAT-2